TIANWANG 1C (TW-1C)
1 40926U 15051B   19270.91048816 +.00010942 +00000-0 +15001-3 0  9995
2 40926 097.1266 317.0115 0007400 010.6999 114.5507 15.57506381225909
TIANWANG 1B (TW-1B)
1 40927U 15051C   19270.84493771  .00010191  00000-0  14883-3 0  9995
2 40927  97.1296 316.1110 0008273  21.7674  95.8579 15.55804411225734
TIANWANG 1A (TW-1A)
1 40928U 15051D   19270.92876367 +.00002418 +00000-0 +60020-4 0  9999
2 40928 097.1396 299.9793 0012726 067.9548 052.1798 15.41235233224767
LAPAN A2
1 40931U 15052B   19267.89441695  .00000771  00000-0  18391-4 0  9992
2 40931   5.9959  76.3438 0013006 104.0367 256.1227 14.76615036215808
LQSAT
1 40958U 15057A   19270.90915387 +.00000007 +00000-0 +87744-5 0  9997
2 40958 097.8898 337.3248 0016751 276.9215 083.0087 14.73089646213717
CHUBUSAT 2
1 41338U 16012B   19270.29602505  .00000356  00000-0  21004-4 0  9992
2 41338  31.0025 225.4047 0013699  19.5907 340.5253 15.00183249198031
CHUBUSAT 3
1 41339U 16012C   19270.32034425  .00000305  00000-0  16983-4 0  9991
2 41339  31.0104 223.2141 0013578  26.9554 333.1786 15.00356304198030
OUFTI-1
1 41458U 16025C   19270.78678328 +.00001227 +00000-0 +65936-4 0  9999
2 41458 098.1010 002.7709 0166229 017.6711 343.0202 15.06041417187781
E-STAR-2
1 41459U 16025D   19270.82768893  .00000528  00000-0  31145-4 0  9990
2 41459  98.1019   2.4194 0167699  19.0652 341.6740 15.05663945187762
AAUSAT 4
1 41460U 16025E   19270.80769335 +.00001320 +00000-0 +69556-4 0  9990
2 41460 098.0943 003.8954 0157242 010.5662 349.8801 15.07628977187900
NUSAT 1
1 41557U 16033B   19270.87553629 +.00001336 +00000-0 +52538-4 0  9999
2 41557 097.4156 357.7849 0012317 304.2249 055.7823 15.27392842185532
BEESAT 4
1 41619U 16040W   19270.74782179  .00001340  00000-0  59321-4 0  9998
2 41619  97.3578 331.0452 0012146  35.8888 324.3162 15.23318188169247
PRATHAM
1 41783U 16059A   19270.75331855 +.00000043 +00000-0 +17554-4 0  9993
2 41783 098.0573 328.0498 0034776 067.3243 293.1630 14.63010455160328
ALSAT 1N
1 41789U 16059G   19270.86069220  .00000028  00000-0  14346-4 0  9994
2 41789  98.0603 330.3712 0029385  56.3666 304.0316 14.64263132160450
NAYIF 1
1 42017U 17008BX  19270.77050522  .00001483  00000-0  60970-4 0  9999
2 42017  97.3943 336.7859 0006756 159.0312 201.1204 15.25734888145334
MAX VALIER SAT
1 42778U 17036P   19270.77123059 +.00000898 +00000-0 +42134-4 0  9991
2 42778 097.3444 326.1617 0011187 223.3563 136.6794 15.22146781125617
